Location: Bonn
(50.7330°N, 7.1000°E)
Time: 19:23:55
(UTC+02:00)

Iridium 67 - Visible Passes

Search period start: 24 April 2014 00:00
Search period end: 04 May 2014 00:00
Orbit: 776 x 779 km, 86.4° (Epoch: 24 April)

Date Brightness Start Highest point End Pass type
(mag) Time Alt. Az. Time Alt. Az. Time Alt. Az.
24 Apr 5.5 21:55:47 10° N 22:01:02 89° W 22:06:15 10° S visible
24 Apr 8.1 23:38:13 10° NW 23:40:57 15° WNW 23:43:42 10° WSW visible
25 Apr 5.7 21:22:18 10° N 21:27:26 55° E 21:32:32 10° SSE visible
25 Apr 7.6 23:03:42 10° NNW 23:07:48 24° WNW 23:11:52 10° SW visible
26 Apr 6.9 22:29:42 10° NNW 22:34:31 39° W 22:39:18 10° SSW visible
27 Apr 6.0 21:55:56 10° N 22:01:07 66° W 22:06:15 10° S visible
27 Apr 8.5 23:39:56 10° WNW 23:40:47 10° WNW 23:41:38 10° W visible
28 Apr 5.5 21:22:21 10° N 21:27:35 75° E 21:32:47 10° S visible
28 Apr 8.1 23:04:18 10° NW 23:07:41 18° WNW 23:11:04 10° WSW visible
29 Apr 7.4 22:30:02 10° NNW 22:34:28 29° W 22:38:53 10° SW visible
30 Apr 6.6 21:56:08 10° NNW 22:01:08 48° W 22:06:07 10° SSW visible
01 May 5.7 21:22:27 10° N 21:27:41 81° W 21:32:53 10° S visible
01 May 8.3 23:05:13 10° NW 23:07:32 13° WNW 23:09:50 10° W visible
02 May 8.0 22:30:30 10° NNW 22:34:23 22° WNW 22:38:15 10° SW visible
03 May 7.2 21:56:25 10° NNW 22:01:07 35° W 22:05:48 10° SSW visible
